GLOBALSTAR M052

Satellite information

Favourite Embed

Satellite Type and Status

PAYLOADIN ORBIT

Key statistics

Satellite GLOBALSTAR M052 at a glance.

Uptime

9464

Days in orbit

Revolutions

≈ 11.2

Per day

Orbit

MEO

Medium Earth Orbit

Inclination

52.0

Latest

Satellite identification and parameters

Extended collection of information and parameters for GLOBALSTAR M052.

Object identification

Identified? True

Debris? False

Object name: GLOBALSTAR M052

International designator: 1999-031D

Object number (NORAD): 25773

Object ID (CCSDS): 25773

Country: GLOBALSTAR (GLOB)

Current information (Y/N): Y

RCS size: LARGE

Orbital parameters

Period: 129.141 minutes

Inclination: 51.99 deg

SMA: 8463.238 km

Apoapsis: 2087.568 km

Periapsis: 2082.638 km

RAAN: 34.5875 deg

Eccentricy: 0.0002913

Argument of periapsis: 97.3638 deg

Mean anomaly: 354.2677 deg

Mean motion: 11.15059213 rev/day

Mean motion (dot): -0.00000095 rev/day2

B* drag term: -0.00098374 1/REarth

Two-line elements (TLE)

Creation date: May 8, 2025, 3:01 a.m.

Reference frame: TEME

Reference center: EARTH

Epoch: May 7, 2025, 9:29 p.m. UTC

TLE line 0: 0 GLOBALSTAR M052

TLE line 1: 1 25773U 99031D 25127.89544810 -.00000095 00000-0 -98374-3 0 9992

TLE line 2: 2 25773 51.9900 34.5875 0002913 97.3638 354.2677 11.15059213474011

Live tracking on map

Real-time ground track for satellite GLOBALSTAR M052.

In-orbit conjunctions

There are no conjunctions computed for GLOBALSTAR M052, at the moment. Check back to stay up to date, as we update our databases every day.

Go to all conjunctions

Associated space launch

The Globalstar global mobile communications network offers global, digital real time voice, data and fax via a constellation of 48 minisatellites. The constellation operates in a 1410 km orbit inclined at 52 degrees, and will also have 8 spares. The satellites were built by Space Systems Loral and Alenia Aerospazio in Rome, Italy.

GLOBALSTAR M052 was lifted into orbit during the mission ‘Delta 7420-10C | Globalstar 25,47,49,52’, on board a Delta 7420-10C space rocket.

The launch took place on June 10, 1999, 1:48 p.m. from Space Launch Complex 17B.

For more information about the launch, click the button.

Launch to space Delta 7420-10C | Globalstar 25,47,49,52
Delta 7420-10C | Globalstar 25,47,49,52

Agency: N/A

Status: Launch Successful

Launch date: June 10, 1999, 1:48 p.m. UTC

Rocket: Delta 7420-10C

Launch pad: Space Launch Complex 17B

Location: Cape Canaveral SFS, FL, USA

...

Latest news about this satellite

There are no fresh news available about this satellite. Check back as we update our databases every day.


Newsletter sign-up

Weekly statistics, charts and insights to help you stay on top of the space industry.